LEMUR-2-SCHMIDTFALL (46315 NORAD) Tracking and Keplerian Element Data

This shows tracking and keplerian element data for the satellite.

Feedback or suggestion? Click here.




ElementValue
Catalog46315
NameLEMUR-2-SCHMIDTFALL
Epoch Orbit304
Epoch Day267.41028921
Epoch Year2020
RAAN340.1952
Inclination97.5185
Eccentricity0.0002867
Argument of Perigee151.2446
Mean Anonmoly208.8942
Mean Motion15.10901302
Decay Rate1.298E-05
L11 46315U 20061AV 20267.41028921 .00001298 00000-0 81723-4 0 9997
L22 46315 97.5185 340.1952 0002867 151.2446 208.8942 15.10901302 3048

Live tracking and technical data element details for LEMUR-2-SCHMIDTFALL (NORAD 46315). LEMUR-2-SCHMIDTFALL can be tracked NOW for your location showing map with azimuth and elevation plus other details from your city location.

Track the satellite on the map from your city or location and see movement details for azimuth, elevation, latitude, longitude, range, height, and movement on the map or in text.







IsCatalogInMostPopularTable: catalog: 46315, numindb: -1

Insert: records affected: 1


GetName: 46315 LEMUR-2-SCHMIDTFALL

Hit Count: inserted at: Thu, 24 Sep 2020 17:16:31 GMT